| time (UTC) | temp C | wind direction | speed KPH | gust KPH | rain 1hr cm | rain 24hr cm | rain mn cm | humidity % | barometer mb |
| 20260505180057 | -17 | 350 | 0.0 | 6.4 | 0.00 | 0.00 | 0.00 | 1006.3 | |
| 20260505174549 | -17 | 331 | 3.2 | 6.4 | 0.00 | 0.00 | 0.00 | 1006.3 | |
| 20260505173033 | -17 | 67 | 1.6 | 8.0 | 0.00 | 0.00 | 0.00 | 1006.3 | |
| 20260505171525 | -17 | 45 | 3.2 | 16.1 | 0.00 | 0.00 | 0.00 | 1006.4 | |
| 20260505170018 | -17 | 44 | 0.0 | 12.9 | 0.00 | 0.00 | 0.00 | 1006.4 | |
| 20260505164517 | -17 | 36 | 4.8 | 14.5 | 0.00 | 0.00 | 0.00 | 1006.4 | |
| 20260505163019 | -17 | 347 | 4.8 | 16.1 | 0.00 | 0.00 | 0.00 | 1006.4 | |
| 20260505161509 | -17 | 53 | 6.4 | 16.1 | 0.00 | 0.00 | 0.00 | 1006.4 | |
| 20260505153056 | -17 | 15 | 0.0 | 14.5 | 0.00 | 0.00 | 0.00 | 1006.5 | |
| 20260505151552 | -17 | 63 | 0.0 | 0.0 | 0.00 | 0.00 | 0.00 | 1006.5 | |
| 20260505124507 | -17 | 63 | 4.8 | 19.3 | 0.00 | 0.00 | 0.00 | 1007.2 | |
| 20260505123002 | -17 | 41 | 4.8 | 17.7 | 0.00 | 0.00 | 0.00 | 1007.2 | |
| 20260505121501 | -17 | 21 | 4.8 | 19.3 | 0.00 | 0.00 | 0.00 | 1007.1 | |
| 20260505120057 | -17 | 40 | 6.4 | 17.7 | 0.00 | 0.00 | 0.00 | 1007.1 | |
| 20260505114552 | -17 | 355 | 4.8 | 16.1 | 0.00 | 0.00 | 0.00 | 1007.1 | |
| 20260505113053 | -17 | 44 | 8.0 | 16.1 | 0.00 | 0.00 | 0.00 | 1007.3 | |
| 20260505111545 | -17 | 65 | 0.0 | 12.9 | 0.00 | 0.00 | 0.00 | 1007.3 | |
| 20260505101533 | -17 | 51 | 6.4 | 20.9 | 0.00 | 0.00 | 0.00 | 1007.5 | |
| 20260505100024 | -17 | 336 | 4.8 | 14.5 | 0.00 | 0.00 | 0.00 | 1007.6 | |
| 20260505094517 | -17 | 76 | 0.0 | 17.7 | 0.00 | 0.00 | 0.00 | 1007.7 | |
| 20260505093022 | -17 | 53 | 4.8 | 16.1 | 0.00 | 0.00 | 0.00 | 1007.7 | |
| 20260505091508 | -17 | 54 | 4.8 | 20.9 | 0.00 | 0.00 | 0.00 | 1007.8 | |
| 20260505090003 | -17 | 32 | 6.4 | 25.7 | 0.00 | 0.00 | 0.00 | 1007.9 | |
| 20260505084601 | -17 | 345 | 4.8 | 19.3 | 0.00 | 0.00 | 0.00 | 1008.0 | |
| 20260505083200 | -17 | 333 | 3.2 | 14.5 | 0.00 | 0.00 | 0.00 | 1008.0 | |
| 20260505081603 | -17 | 51 | 6.4 | 14.5 | 0.00 | 0.00 | 0.00 | 1008.1 | |
| 20260505080113 | -17 | 21 | 6.4 | 19.3 | 0.00 | 0.00 | 0.00 | 1008.2 | |
| 20260505074607 | -17 | 347 | 1.6 | 14.5 | 0.00 | 0.00 | 0.00 | 1008.0 | |
| 20260505073056 | -17 | 355 | 3.2 | 14.5 | 0.00 | 0.00 | 0.00 | 1007.9 | |
| 20260505071557 | -17 | 355 | 6.4 | 14.5 | 0.00 | 0.00 | 0.00 | 1008.0 | |
| 20260505070050 | -17 | 52 | 1.6 | 17.7 | 0.00 | 0.00 | 0.00 | 1008.0 | |
| 20260505064542 | -17 | 33 | 3.2 | 14.5 | 0.00 | 0.00 | 0.00 | 1008.2 | |
| 20260505063048 | -17 | 333 | 4.8 | 8.0 | 0.00 | 0.00 | 0.00 | 1008.1 | |
| 20260505061603 | -17 | 59 | 6.4 | 14.5 | 0.00 | 0.00 | 0.00 | 1008.0 | |
| 20260505060030 | -17 | 61 | 3.2 | 9.7 | 0.00 | 0.00 | 0.00 | 1008.0 | |
| 20260505054524 | -17 | 40 | 0.0 | 6.4 | 0.00 | 0.00 | 0.00 | 1008.1 | |
| 20260505053021 | -17 | 5 | 0.0 | 0.0 | 0.00 | 0.00 | 0.00 | 1008.1 | |
| 20260505051531 | -17 | 31 | 0.0 | 1.6 | 0.00 | 0.00 | 0.00 | 1008.3 | |
| 20260505041601 | -17 | 334 | 1.6 | 6.4 | 0.00 | 0.00 | 0.00 | 1008.4 | |
| 20260505040056 | -17 | 51 | 0.0 | 0.0 | 0.00 | 0.00 | 0.00 | 1008.3 | |
| 20260505034551 | -17 | 53 | 0.0 | 0.0 | 0.00 | 0.00 | 0.00 | 1008.3 | |
| 20260505033046 | -17 | 51 | 0.0 | 0.0 | 0.00 | 0.00 | 0.00 | 1008.4 | |
| 20260505031546 | -17 | 51 | 0.0 | 4.8 | 0.00 | 0.00 | 0.00 | 1008.5 | |
| 20260505030038 | -17 | 44 | 0.0 | 3.2 | 0.00 | 0.00 | 0.00 | 1008.5 | |
| 20260505024533 | -17 | 36 | 3.2 | 8.0 | 0.00 | 0.00 | 0.00 | 1008.7 | |
| 20260505023028 | -17 | 19 | 0.0 | 6.4 | 0.00 | 0.00 | 0.00 | 1008.7 | |
| 20260505021524 | -17 | 19 | 0.0 | 4.8 | 0.00 | 0.00 | 0.00 | 1008.7 | |
| 20260505020020 | -17 | 31 | 0.0 | 0.0 | 0.00 | 0.00 | 0.00 | 1008.7 | |
| 20260505014514 | -17 | 28 | 0.0 | 1.6 | 0.00 | 0.00 | 0.00 | 1008.7 | |
| 20260505013010 | -17 | 360 | 0.0 | 8.0 | 0.00 | 0.00 | 0.00 | 1008.9 | |
| 20260505011507 | -17 | 5 | 1.6 | 4.8 | 0.00 | 0.00 | 0.00 | 1009.0 | |
| 20260505010002 | -17 | 49 | 1.6 | 9.7 | 0.00 | 0.00 | 0.00 | 1009.1 | |
| 20260505004557 | -17 | 54 | 1.6 | 6.4 | 0.00 | 0.00 | 0.00 | 1009.3 | |
| 20260505003057 | -17 | 31 | 1.6 | 9.7 | 0.00 | 0.00 | 0.00 | 1009.4 | |
| 20260505001549 | -17 | 69 | 0.0 | 6.4 | 0.00 | 0.00 | 0.00 | 1009.4 | |
| 20260505000047 | -17 | 24 | 0.0 | 9.7 | 0.00 | 0.00 | 0.00 | 1009.5 | |
| 20260504234539 | -17 | 20 | 0.0 | 0.0 | 0.00 | 0.00 | 0.00 | 1009.5 | |
| 20260504233038 | -17 | 36 | 1.6 | 8.0 | 0.00 | 0.00 | 0.00 | 1009.4 | |
| 20260504231530 | -17 | 54 | 0.0 | 6.4 | 0.00 | 0.00 | 0.00 | 1009.6 | |
| 20260504230026 | -17 | 55 | 0.0 | 4.8 | 0.00 | 0.00 | 0.00 | 1009.6 | |
| 20260504224624 | -17 | 44 | 0.0 | 9.7 | 0.00 | 0.00 | 0.00 | 1009.7 | |
| 20260504223023 | -17 | 53 | 1.6 | 8.0 | 0.00 | 0.00 | 0.00 | 1009.7 | |
| 20260504221522 | -17 | 12 | 1.6 | 8.0 | 0.00 | 0.00 | 0.00 | 1009.8 | |
| 20260504220022 | -17 | 24 | 4.8 | 12.9 | 0.00 | 0.00 | 0.00 | 1009.4 | |
| 20260504214520 | -17 | 355 | 1.6 | 6.4 | 0.00 | 0.00 | 0.00 | 1009.6 | |
| 20260504213018 | -17 | 55 | 0.0 | 4.8 | 0.00 | 0.00 | 0.00 | 1009.7 | |
| 20260504211511 | -17 | 11 | 0.0 | 12.9 | 0.00 | 0.00 | 0.00 | 1009.8 | |
| 20260504210006 | -17 | 38 | 3.2 | 9.7 | 0.00 | 0.00 | 0.00 | 1009.7 | |
| 20260504204503 | -17 | 9 | 3.2 | 6.4 | 0.00 | 0.00 | 0.00 | 1009.8 | |
| 20260504203108 | -17 | 17 | 1.6 | 6.4 | 0.00 | 0.00 | 0.00 | 1009.7 | |
| 20260504201554 | -17 | 38 | 1.6 | 6.4 | 0.00 | 0.00 | 0.00 | 1009.6 | |
| 20260504200050 | -17 | 331 | 0.0 | 0.0 | 0.00 | 0.00 | 0.00 | 1009.5 | |
| 20260504194555 | -17 | 40 | 0.0 | 0.0 | 0.00 | 0.00 | 0.00 | 1009.3 | |
| 20260504193050 | -17 | 42 | 0.0 | 3.2 | 0.00 | 0.00 | 0.00 | 1009.3 | |
| 20260504191548 | -17 | 59 | 0.0 | 6.4 | 0.00 | 0.00 | 0.00 | 1009.0 | |
| 20260504190108 | -17 | 32 | 3.2 | 8.0 | 0.00 | 0.00 | 0.00 | 1009.0 | |
| 20260504184546 | -17 | 65 | 1.6 | 6.4 | 0.00 | 0.00 | 0.00 | 1008.9 | |
| 20260504183046 | -17 | 56 | 4.8 | 9.7 | 0.00 | 0.00 | 0.00 | 1008.8 | |
| 20260504181549 | -17 | 32 | 3.2 | 8.0 | 0.00 | 0.00 | 0.00 | 1008.9 |